This demonstration page uses our WeatherBlox Daily Observations layout. Learn more.

41.55636, -103.73856

Hourly Observations for November 2, 2015

Temp ( °F °C ) Dew Point ( °F °C ) Humidity (%) Winds ( mph kmh ) Pressure ( in mb ) Visibility ( mi km ) Precip ( " mm )
12:53 am 00:53 Clear 45 7.2 32 0 61 61 NW 12 19 29.79 1009 10 16.0934 0 0
1:53 am 01:53 Clear 44 6.7 31 -0.6 60 60 Calm 29.8 1009 10 16.0934 0 0
2:53 am 02:53 Clear 40 4.4 31 -0.6 70 70 Calm 29.8 1009 10 16.0934 0 0
3:53 am 03:53 Clear 41 5 30 -1.1 65 65 N 5 7 29.82 1010 10 16.0934 0 0
4:53 am 04:53 Clear 39 3.9 32 0 76 76 N 3 6 29.85 1011 10 16.0934 0 0
5:53 am 05:53 Clear 41 5 32 0 70 70 N 6 9 29.84 1011 10 16.0934 0 0
6:53 am 06:53 Sunny 45 7.2 32 0 61 61 N 7 11 29.84 1010 10 16.0934 0 0
7:53 am 07:53 Sunny 47 8.3 33 0.6 59 59 S 7 11 29.88 1012 10 16.0934 0 0
8:53 am 08:53 Mostly Cloudy 52 11.1 34 1.1 50 50 Calm 29.87 1012 10 16.0934 0 0
9:53 am 09:53 Sunny 54 12.2 34 1.1 47 47 NNW 7 11 29.87 1011 10 16.0934 0 0
10:53 am 10:53 Sunny 57 13.9 34 1.1 42 42 Calm 29.84 1011 10 16.0934 0 0
11:53 am 11:53 Sunny 61 16.1 34 1.1 36 36 Calm 29.83 1010 10 16.0934 0 0
12:53 pm 12:53 Sunny 64 17.8 35 1.7 34 34 Calm 29.78 1008 10 16.0934 0 0
1:53 pm 13:53 Sunny 67 19.4 33 0.6 28 28 SE 8 13 29.75 1008 10 16.0934 0 0
2:53 pm 14:53 Sunny 67 19.4 33 0.6 28 28 ESE 14 22 29.75 1007 10 16.0934 0 0
3:53 pm 15:53 Sunny 65 18.3 35 1.7 33 33 E 14 22 29.74 1007 10 16.0934 0 0
4:53 pm 16:53 Clear 57 13.9 34 1.1 42 42 ESE 9 15 29.76 1008 10 16.0934 0 0
5:53 pm 17:53 Clear 53 11.7 34 1.1 48 48 ESE 13 20 29.77 1008 10 16.0934 0 0
6:53 pm 18:53 Clear 49 9.4 33 0.6 55 55 E 9 15 29.76 1008 10 16.0934 0 0
7:53 pm 19:53 Clear 46 7.8 33 0.6 61 61 E 9 15 29.75 1008 10 16.0934 0 0
8:53 pm 20:53 Clear 46 7.8 33 0.6 61 61 ENE 3 6 29.73 1007 10 16.0934 0 0
9:53 pm 21:53 Clear 44 6.7 34 1.1 68 68 E 8 13 29.71 1006 10 16.0934 0 0
10:53 pm 22:53 Clear 45 7.2 34 1.1 66 66 E 8 13 29.67 1005 10 16.0934 0 0
11:53 pm 23:53 Clear 41 5 33 0.6 73 73 Calm 29.68 1005 10 16.0934 0 0

Powered by AerisWeather